TimeCEST,TemperatureF,Dew PointF,Humidity,Sea Level PressureIn,VisibilityMPH,Wind Direction,Wind SpeedMPH,Gust SpeedMPH,PrecipitationIn,Events,Conditions,WindDirDegrees,DateUTC
12:00 AM,75.2,64.4,69,29.77,6.2,West,10.4,-,N/A,,Partly Cloudy,260,2013-09-29 22:00:00
12:30 AM,73.4,62.6,69,29.77,6.2,West,8.1,-,N/A,,Partly Cloudy,260,2013-09-29 22:30:00
1:00 AM,75.2,62.6,65,29.77,6.2,West,5.8,-,N/A,,Partly Cloudy,270,2013-09-29 23:00:00
1:30 AM,73.4,62.6,69,29.77,6.2,Variable,1.2,-,N/A,,Partly Cloudy,0,2013-09-29 23:30:00
2:00 AM,72,63,65,29.77,12,SSW,2.3,,,,Scattered Clouds,200,2013-09-30 00:00:00
2:00 AM,73.4,64.4,73,29.77,6.2,Variable,2.3,-,N/A,,Partly Cloudy,0,2013-09-30 00:00:00
2:30 AM,69.8,62.6,78,29.77,6.2,Calm,Calm,-,N/A,,Partly Cloudy,0,2013-09-30 00:30:00
3:00 AM,66.2,60.8,83,29.74,6.2,Calm,Calm,-,N/A,,Partly Cloudy,0,2013-09-30 01:00:00
3:30 AM,66.2,60.8,83,29.74,6.2,Variable,1.2,-,N/A,,Partly Cloudy,0,2013-09-30 01:30:00
4:00 AM,64.4,60.8,88,29.74,6.2,ENE,4.6,-,N/A,,Partly Cloudy,70,2013-09-30 02:00:00
4:30 AM,64.4,60.8,88,29.74,6.2,Calm,Calm,-,N/A,,Partly Cloudy,0,2013-09-30 02:30:00
5:00 AM,64.4,60.8,88,29.74,6.2,NE,1.2,-,N/A,,Partly Cloudy,40,2013-09-30 03:00:00
5:30 AM,64.4,60.8,88,29.74,6.2,Calm,Calm,-,N/A,,Partly Cloudy,0,2013-09-30 03:30:00
6:00 AM,62.6,59.0,88,29.74,6.2,Calm,Calm,-,N/A,,Partly Cloudy,0,2013-09-30 04:00:00
6:30 AM,62.6,59.0,88,29.74,6.2,ENE,1.2,-,N/A,,Partly Cloudy,60,2013-09-30 04:30:00
7:00 AM,62.6,59.0,88,29.74,6.2,NE,2.3,-,N/A,,Partly Cloudy,40,2013-09-30 05:00:00
7:30 AM,62.6,59.0,88,29.74,6.2,Variable,1.2,-,N/A,,Partly Cloudy,0,2013-09-30 05:30:00
8:00 AM,63,61,90,29.77,16,Calm,Calm,,,,Scattered Clouds,,2013-09-30 06:00:00
8:00 AM,62.6,60.8,94,29.77,6.2,Calm,Calm,-,N/A,,Partly Cloudy,0,2013-09-30 06:00:00
8:30 AM,64.4,62.6,94,29.77,6.2,Calm,Calm,-,N/A,,Partly Cloudy,0,2013-09-30 06:30:00
9:00 AM,66.2,62.6,88,29.77,6.2,Calm,Calm,-,N/A,,Partly Cloudy,0,2013-09-30 07:00:00
9:30 AM,69.8,64.4,83,29.77,6.2,Variable,2.3,-,N/A,,Partly Cloudy,0,2013-09-30 07:30:00
10:00 AM,77.0,66.2,69,29.77,6.2,West,11.5,-,N/A,,Partly Cloudy,270,2013-09-30 08:00:00
10:30 AM,78.8,62.6,57,29.77,6.2,West,11.5,-,N/A,,Partly Cloudy,260,2013-09-30 08:30:00
11:00 AM,78.8,66.2,65,29.77,6.2,WSW,15.0,-,N/A,,Partly Cloudy,250,2013-09-30 09:00:00
11:30 AM,78.8,64.4,61,29.77,6.2,WSW,18.4,-,N/A,,Partly Cloudy,250,2013-09-30 09:30:00
12:00 PM,80.6,64.4,58,29.77,6.2,West,17.3,-,N/A,,Partly Cloudy,260,2013-09-30 10:00:00
12:30 PM,80.6,64.4,58,29.77,6.2,WSW,15.0,-,N/A,,Partly Cloudy,250,2013-09-30 10:30:00
1:00 PM,80.6,64.4,58,29.77,6.2,WSW,18.4,-,N/A,,Partly Cloudy,250,2013-09-30 11:00:00
1:30 PM,82.4,62.6,51,29.77,6.2,WSW,18.4,-,N/A,,Partly Cloudy,250,2013-09-30 11:30:00
2:00 PM,83,64,43,29.76,19,WSW,20.7,,,,Scattered Clouds,240,2013-09-30 12:00:00
2:00 PM,82.4,64.4,54,29.74,6.2,WSW,19.6,-,N/A,,Partly Cloudy,240,2013-09-30 12:00:00
2:30 PM,82.4,66.2,58,29.74,6.2,WSW,21.9,-,N/A,,Partly Cloudy,240,2013-09-30 12:30:00
3:00 PM,80.6,64.4,58,29.74,6.2,West,23.0,-,N/A,,Partly Cloudy,260,2013-09-30 13:00:00
3:30 PM,80.6,64.4,58,29.74,6.2,WSW,23.0,-,N/A,,Partly Cloudy,250,2013-09-30 13:30:00
4:00 PM,80.6,64.4,58,29.74,6.2,WSW,21.9,-,N/A,,Partly Cloudy,250,2013-09-30 14:00:00
4:30 PM,80.6,66.2,61,29.74,6.2,WSW,21.9,-,N/A,,Partly Cloudy,250,2013-09-30 14:30:00
5:00 PM,78.8,64.4,61,29.74,6.2,WSW,20.7,-,N/A,,Partly Cloudy,250,2013-09-30 15:00:00
5:30 PM,78.8,64.4,61,29.74,6.2,West,12.7,-,N/A,,Partly Cloudy,270,2013-09-30 15:30:00
6:00 PM,80.6,64.4,58,29.74,6.2,West,13.8,-,N/A,,Partly Cloudy,270,2013-09-30 16:00:00
6:30 PM,78.8,64.4,61,29.74,6.2,West,12.7,-,N/A,,Partly Cloudy,270,2013-09-30 16:30:00
7:00 PM,78.8,64.4,61,29.74,6.2,West,11.5,-,N/A,,Partly Cloudy,270,2013-09-30 17:00:00
7:30 PM,77.0,64.4,65,29.77,6.2,West,11.5,-,N/A,,Partly Cloudy,260,2013-09-30 17:30:00
8:00 PM,77.0,66.2,69,29.77,6.2,West,8.1,-,N/A,,Partly Cloudy,280,2013-09-30 18:00:00
8:30 PM,77.0,66.2,69,29.77,6.2,West,10.4,-,N/A,,Partly Cloudy,260,2013-09-30 18:30:00
9:00 PM,75.2,66.2,73,29.77,6.2,West,10.4,-,N/A,,Partly Cloudy,260,2013-09-30 19:00:00
9:30 PM,75.2,66.2,73,29.80,6.2,West,6.9,-,N/A,,Partly Cloudy,280,2013-09-30 19:30:00
10:00 PM,75.2,66.2,73,29.80,6.2,West,4.6,-,N/A,,Partly Cloudy,280,2013-09-30 20:00:00
10:30 PM,75.2,66.2,73,29.80,6.2,Variable,2.3,-,N/A,,Partly Cloudy,0,2013-09-30 20:30:00
11:00 PM,73.4,66.2,78,29.80,6.2,Variable,1.2,-,N/A,,Partly Cloudy,0,2013-09-30 21:00:00
11:30 PM,69.8,64.4,83,29.80,6.2,NE,2.3,-,N/A,,Partly Cloudy,40,2013-09-30 21:30:00